Time,TemperatureF,DewpointF,PressureIn,WindDirection,WindDirectionDegrees,WindSpeedMPH,WindSpeedGustMPH,Humidity,HourlyPrecipIn,Conditions,Clouds,dailyrainin,SoftwareType,DateUTC
2013-02-28 00:00:00,38.2,32.0,29.82,WSW,248,1.8,6.3,78,0.00,,,0.02,WUHU216HW,2013-02-28 05:00:00,
2013-02-28 00:05:00,38.0,31.8,29.82,WSW,248,3.4,6.3,78,0.00,,,0.00,WUHU216HW,2013-02-28 05:05:00,
2013-02-28 00:10:00,38.0,31.8,29.82,West,270,3.1,4.7,78,0.00,,,0.00,WUHU216HW,2013-02-28 05:10:00,
2013-02-28 00:15:00,38.0,31.8,29.81,West,270,2.5,4.7,78,0.00,,,0.00,WUHU216HW,2013-02-28 05:15:00,
2013-02-28 00:20:00,37.8,31.6,29.81,WNW,293,4.5,4.9,78,0.00,,,0.00,WUHU216HW,2013-02-28 05:20:00,
2013-02-28 00:25:00,37.8,31.6,29.81,West,270,3.4,5.4,78,0.00,,,0.00,WUHU216HW,2013-02-28 05:25:00,
2013-02-28 00:30:00,37.8,30.9,29.81,WSW,248,3.4,6.3,76,0.00,,,0.00,WUHU216HW,2013-02-28 05:30:00,
2013-02-28 00:35:00,37.8,31.2,29.81,WSW,248,4.0,6.3,77,0.00,,,0.00,WUHU216HW,2013-02-28 05:35:00,
2013-02-28 00:40:00,37.8,30.9,29.81,WSW,248,4.5,6.5,76,0.00,,,0.00,WUHU216HW,2013-02-28 05:40:00,
2013-02-28 00:45:00,37.8,31.2,29.81,WSW,248,5.4,6.5,77,0.00,,,0.00,WUHU216HW,2013-02-28 05:45:00,
2013-02-28 00:50:00,37.8,31.2,29.81,WNW,293,4.0,6.3,77,0.00,,,0.00,WUHU216HW,2013-02-28 05:50:00,
2013-02-28 00:55:00,37.8,31.2,29.81,West,270,3.4,6.3,77,0.00,,,0.00,WUHU216HW,2013-02-28 05:55:00,
2013-02-28 01:00:00,37.6,30.8,29.81,West,270,3.1,6.3,76,0.00,,,0.00,WUHU216HW,2013-02-28 06:00:00,
2013-02-28 01:05:00,37.6,30.8,29.81,WNW,293,4.7,5.8,76,0.00,,,0.00,WUHU216HW,2013-02-28 06:05:00,
2013-02-28 01:10:00,37.6,30.8,29.81,WSW,248,5.6,5.8,76,0.00,,,0.00,WUHU216HW,2013-02-28 06:10:00,
2013-02-28 01:15:00,37.4,30.6,29.81,West,270,3.4,5.6,76,0.00,,,0.00,WUHU216HW,2013-02-28 06:15:00,
2013-02-28 01:20:00,37.4,30.9,29.81,WSW,248,2.5,5.6,77,0.00,,,0.00,WUHU216HW,2013-02-28 06:20:00,
2013-02-28 01:25:00,37.4,30.6,29.81,WNW,293,3.4,5.4,76,0.00,,,0.00,WUHU216HW,2013-02-28 06:25:00,
2013-02-28 01:30:00,37.4,30.9,29.80,WSW,248,1.8,3.8,77,0.00,,,0.00,WUHU216HW,2013-02-28 06:30:00,
2013-02-28 01:35:00,37.4,30.6,29.80,West,270,3.1,4.5,76,0.00,,,0.00,WUHU216HW,2013-02-28 06:35:00,
2013-02-28 01:40:00,37.4,30.6,29.80,NW,315,1.8,4.5,76,0.00,,,0.00,WUHU216HW,2013-02-28 06:40:00,
2013-02-28 01:45:00,37.4,30.9,29.80,WNW,293,4.3,4.7,77,0.00,,,0.00,WUHU216HW,2013-02-28 06:45:00,
2013-02-28 01:50:00,37.3,30.4,29.80,WNW,293,6.9,6.9,76,0.00,,,0.00,WUHU216HW,2013-02-28 06:50:00,
2013-02-28 01:55:00,37.4,30.2,29.80,West,270,3.4,6.9,75,0.00,,,0.00,WUHU216HW,2013-02-28 06:55:00,
2013-02-28 02:00:00,37.4,30.9,29.80,NW,315,4.7,6.9,77,0.00,,,0.00,WUHU216HW,2013-02-28 07:00:00,
2013-02-28 02:05:00,37.3,30.4,29.80,WSW,248,4.0,5.8,76,0.00,,,0.00,WUHU216HW,2013-02-28 07:05:00,
2013-02-28 02:10:00,37.1,30.3,29.80,West,270,4.0,6.0,76,0.00,,,0.00,WUHU216HW,2013-02-28 07:10:00,
2013-02-28 02:15:00,37.1,30.3,29.80,WNW,293,4.9,6.3,76,0.00,,,0.00,WUHU216HW,2013-02-28 07:15:00,
2013-02-28 02:20:00,37.1,30.3,29.80,WSW,248,4.0,6.3,76,0.00,,,0.00,WUHU216HW,2013-02-28 07:20:00,
2013-02-28 02:25:00,37.1,30.3,29.80,WSW,248,4.7,7.6,76,0.00,,,0.00,WUHU216HW,2013-02-28 07:25:00,
2013-02-28 02:30:00,36.9,30.3,29.80,WNW,293,4.0,7.6,77,0.00,,,0.00,WUHU216HW,2013-02-28 07:30:00,
2013-02-28 02:35:00,36.9,30.3,29.80,NW,315,7.2,7.4,77,0.00,,,0.00,WUHU216HW,2013-02-28 07:35:00,
2013-02-28 02:40:00,36.7,30.5,29.80,WNW,293,6.3,7.4,78,0.00,,,0.00,WUHU216HW,2013-02-28 07:40:00,
2013-02-28 02:45:00,36.5,30.3,29.80,NW,315,5.6,7.2,78,0.00,,,0.00,WUHU216HW,2013-02-28 07:45:00,
2013-02-28 02:50:00,36.5,30.6,29.80,NW,315,4.0,6.9,79,0.00,,,0.00,WUHU216HW,2013-02-28 07:50:00,
2013-02-28 02:55:00,36.4,30.4,29.79,WNW,293,5.1,6.9,79,0.00,,,0.00,WUHU216HW,2013-02-28 07:55:00,
2013-02-28 03:00:00,36.2,30.6,29.79,WNW,293,3.6,5.4,80,0.00,,,0.00,WUHU216HW,2013-02-28 08:00:00,
2013-02-28 03:05:00,35.8,30.2,29.80,West,270,4.0,5.1,80,0.00,,,0.00,WUHU216HW,2013-02-28 08:05:00,
2013-02-28 03:10:00,35.8,30.2,29.80,West,270,4.7,5.6,80,0.00,,,0.00,WUHU216HW,2013-02-28 08:10:00,
2013-02-28 03:15:00,35.8,30.2,29.80,WNW,293,3.1,5.6,80,0.00,,,0.00,WUHU216HW,2013-02-28 08:15:00,
2013-02-28 03:20:00,35.8,30.2,29.80,NW,315,5.6,5.6,80,0.00,,,0.00,WUHU216HW,2013-02-28 08:20:00,
2013-02-28 03:25:00,35.8,29.6,29.79,WNW,293,4.0,6.9,78,0.00,,,0.00,WUHU216HW,2013-02-28 08:25:00,
2013-02-28 03:30:00,35.8,29.6,29.79,WNW,293,4.9,6.9,78,0.00,,,0.00,WUHU216HW,2013-02-28 08:30:00,
2013-02-28 03:35:00,35.6,29.4,29.79,NW,315,4.7,5.8,78,0.00,,,0.00,WUHU216HW,2013-02-28 08:35:00,
2013-02-28 03:40:00,35.6,29.4,29.79,WSW,248,4.0,5.8,78,0.00,,,0.00,WUHU216HW,2013-02-28 08:40:00,
2013-02-28 03:45:00,35.6,29.4,29.79,West,270,4.5,5.6,78,0.00,,,0.00,WUHU216HW,2013-02-28 08:45:00,
2013-02-28 03:50:00,35.6,29.1,29.79,West,270,3.4,5.4,77,0.00,,,0.00,WUHU216HW,2013-02-28 08:50:00,
2013-02-28 03:55:00,35.6,29.1,29.78,NW,315,4.0,5.4,77,0.00,,,0.00,WUHU216HW,2013-02-28 08:55:00,
2013-02-28 04:00:00,35.6,29.4,29.79,WNW,293,3.4,5.4,78,0.00,,,0.00,WUHU216HW,2013-02-28 09:00:00,
2013-02-28 04:05:00,35.6,29.4,29.79,West,270,4.0,5.4,78,0.00,,,0.00,WUHU216HW,2013-02-28 09:05:00,
2013-02-28 04:10:00,35.6,29.4,29.79,West,270,2.7,5.4,78,0.00,,,0.00,WUHU216HW,2013-02-28 09:10:00,
2013-02-28 04:15:00,35.6,29.4,29.79,West,270,2.5,4.9,78,0.00,,,0.00,WUHU216HW,2013-02-28 09:15:00,
2013-02-28 04:20:00,35.6,30.1,29.79,West,270,2.7,4.5,80,0.00,,,0.00,WUHU216HW,2013-02-28 09:20:00,
2013-02-28 04:25:00,35.5,29.9,29.79,West,270,3.8,4.0,80,0.00,,,0.00,WUHU216HW,2013-02-28 09:25:00,
2013-02-28 04:30:00,35.5,29.9,29.79,WSW,248,3.4,6.3,80,0.00,,,0.00,WUHU216HW,2013-02-28 09:30:00,
2013-02-28 04:35:00,35.5,29.3,29.79,West,270,4.7,6.3,78,0.00,,,0.00,WUHU216HW,2013-02-28 09:35:00,
2013-02-28 04:40:00,35.5,28.9,29.79,NW,315,4.3,6.9,77,0.00,,,0.00,WUHU216HW,2013-02-28 09:40:00,
2013-02-28 04:45:00,35.5,28.9,29.79,WNW,293,7.6,7.6,77,0.00,,,0.00,WUHU216HW,2013-02-28 09:45:00,
2013-02-28 04:50:00,35.5,28.6,29.79,WSW,248,4.7,7.6,76,0.00,,,0.00,WUHU216HW,2013-02-28 09:50:00,
2013-02-28 04:55:00,35.5,28.6,29.79,WSW,248,5.6,7.6,76,0.00,,,0.00,WUHU216HW,2013-02-28 09:55:00,
2013-02-28 05:00:00,35.5,28.9,29.79,WSW,248,4.0,6.9,77,0.00,,,0.00,WUHU216HW,2013-02-28 10:00:00,
2013-02-28 05:05:00,35.3,28.7,29.80,NNW,338,6.7,8.3,77,0.00,,,0.00,WUHU216HW,2013-02-28 10:05:00,
2013-02-28 05:10:00,35.3,28.7,29.80,WNW,293,4.3,8.3,77,0.00,,,0.00,WUHU216HW,2013-02-28 10:10:00,
2013-02-28 05:15:00,35.3,28.7,29.80,West,270,5.8,5.8,77,0.00,,,0.00,WUHU216HW,2013-02-28 10:15:00,
2013-02-28 05:20:00,35.3,28.5,29.80,West,270,4.7,8.5,76,0.00,,,0.00,WUHU216HW,2013-02-28 10:20:00,
2013-02-28 05:25:00,35.3,28.7,29.80,WNW,293,3.8,8.5,77,0.00,,,0.00,WUHU216HW,2013-02-28 10:25:00,
2013-02-28 05:30:00,35.3,28.7,29.80,West,270,3.6,5.6,77,0.00,,,0.00,WUHU216HW,2013-02-28 10:30:00,
2013-02-28 05:35:00,35.3,28.7,29.80,WSW,248,4.7,6.9,77,0.00,,,0.00,WUHU216HW,2013-02-28 10:35:00,
2013-02-28 05:40:00,35.3,28.7,29.81,WSW,248,4.7,6.9,77,0.00,,,0.00,WUHU216HW,2013-02-28 10:40:00,
2013-02-28 05:45:00,35.1,28.5,29.81,WNW,293,4.0,5.4,77,0.00,,,0.00,WUHU216HW,2013-02-28 10:45:00,
2013-02-28 05:50:00,35.3,28.5,29.81,West,270,3.4,6.7,76,0.00,,,0.00,WUHU216HW,2013-02-28 10:50:00,
2013-02-28 05:55:00,35.1,28.5,29.81,WNW,293,3.4,6.7,77,0.00,,,0.00,WUHU216HW,2013-02-28 10:55:00,
2013-02-28 06:00:00,35.1,28.9,29.81,West,270,3.6,4.7,78,0.00,,,0.00,WUHU216HW,2013-02-28 11:00:00,
2013-02-28 06:05:00,35.1,28.9,29.80,WSW,248,2.5,4.5,78,0.00,,,0.00,WUHU216HW,2013-02-28 11:05:00,
2013-02-28 06:10:00,35.1,28.5,29.81,West,270,2.0,4.9,77,0.00,,,0.00,WUHU216HW,2013-02-28 11:10:00,
2013-02-28 06:15:00,35.1,28.5,29.81,WSW,248,3.1,5.6,77,0.00,,,0.00,WUHU216HW,2013-02-28 11:15:00,
2013-02-28 06:20:00,35.1,28.5,29.81,NW,315,2.9,5.6,77,0.00,,,0.00,WUHU216HW,2013-02-28 11:20:00,
2013-02-28 06:25:00,35.1,28.5,29.81,West,270,3.4,6.0,77,0.00,,,0.00,WUHU216HW,2013-02-28 11:25:00,
2013-02-28 06:30:00,35.1,28.5,29.81,WNW,293,2.9,6.0,77,0.00,,,0.00,WUHU216HW,2013-02-28 11:30:00,
2013-02-28 06:35:00,35.1,28.5,29.81,WSW,248,4.0,5.4,77,0.00,,,0.00,WUHU216HW,2013-02-28 11:35:00,
2013-02-28 06:40:00,35.1,28.9,29.81,West,270,3.1,4.9,78,0.00,,,0.00,WUHU216HW,2013-02-28 11:40:00,
2013-02-28 06:45:00,35.1,28.9,29.81,West,270,2.5,3.8,78,0.00,,,0.00,WUHU216HW,2013-02-28 11:45:00,
2013-02-28 06:50:00,35.1,28.5,29.81,WNW,293,3.4,6.3,77,0.00,,,0.00,WUHU216HW,2013-02-28 11:50:00,
2013-02-28 06:55:00,35.1,28.5,29.81,WNW,293,4.9,6.3,77,0.00,,,0.00,WUHU216HW,2013-02-28 11:55:00,
2013-02-28 07:00:00,35.1,28.9,29.81,West,270,2.9,5.4,78,0.00,,,0.00,WUHU216HW,2013-02-28 12:00:00,
2013-02-28 07:05:00,35.1,28.5,29.81,WNW,293,4.3,5.4,77,0.00,,,0.00,WUHU216HW,2013-02-28 12:05:00,
2013-02-28 07:10:00,35.1,28.9,29.82,WNW,293,4.7,4.7,78,0.00,,,0.00,WUHU216HW,2013-02-28 12:10:00,
2013-02-28 07:15:00,35.1,28.9,29.82,WSW,248,3.1,4.7,78,0.00,,,0.00,WUHU216HW,2013-02-28 12:15:00,
2013-02-28 07:20:00,35.1,28.5,29.82,WSW,248,3.4,4.7,77,0.00,,,0.00,WUHU216HW,2013-02-28 12:20:00,
2013-02-28 07:25:00,35.1,28.9,29.82,WNW,293,5.1,5.1,78,0.00,,,0.00,WUHU216HW,2013-02-28 12:25:00,
2013-02-28 07:30:00,35.1,28.9,29.82,NW,315,4.0,7.6,78,0.00,,,0.00,WUHU216HW,2013-02-28 12:30:00,
2013-02-28 07:35:00,35.1,28.9,29.82,WNW,293,5.4,7.6,78,0.00,,,0.00,WUHU216HW,2013-02-28 12:35:00,
2013-02-28 07:40:00,34.9,29.3,29.82,NW,315,5.4,5.4,80,0.00,,,0.00,WUHU216HW,2013-02-28 12:40:00,
2013-02-28 07:45:00,34.7,29.2,29.82,WNW,293,3.6,5.4,80,0.00,,,0.00,WUHU216HW,2013-02-28 12:45:00,
2013-02-28 07:50:00,34.6,29.5,29.83,NW,315,3.1,5.4,82,0.00,,,0.00,WUHU216HW,2013-02-28 12:50:00,
2013-02-28 07:55:00,34.2,28.9,29.83,NNW,338,3.4,5.1,81,0.00,,,0.00,WUHU216HW,2013-02-28 12:55:00,
2013-02-28 08:00:00,34.0,29.4,29.83,WNW,293,2.0,5.1,83,0.00,,,0.00,WUHU216HW,2013-02-28 13:00:00,
2013-02-28 08:05:00,33.8,29.4,29.83,West,270,3.8,4.5,84,0.00,,,0.00,WUHU216HW,2013-02-28 13:05:00,
2013-02-28 08:10:00,33.7,29.3,29.83,WNW,293,2.5,4.5,84,0.00,,,0.00,WUHU216HW,2013-02-28 13:10:00,
2013-02-28 08:15:00,33.8,29.7,29.83,WSW,248,3.4,4.0,85,0.00,,,0.00,WUHU216HW,2013-02-28 13:15:00,
2013-02-28 08:20:00,33.8,29.4,29.83,WNW,293,2.0,4.7,84,0.00,,,0.00,WUHU216HW,2013-02-28 13:20:00,
2013-02-28 08:25:00,33.8,29.4,29.84,WNW,293,3.6,4.7,84,0.00,,,0.00,WUHU216HW,2013-02-28 13:25:00,
2013-02-28 08:30:00,33.8,29.2,29.84,WNW,293,3.6,4.3,83,0.00,,,0.00,WUHU216HW,2013-02-28 13:30:00,
2013-02-28 08:35:00,34.0,29.6,29.84,WNW,293,2.5,4.5,84,0.00,,,0.00,WUHU216HW,2013-02-28 13:35:00,
2013-02-28 08:40:00,34.0,29.6,29.84,West,270,2.5,4.5,84,0.00,,,0.00,WUHU216HW,2013-02-28 13:40:00,
2013-02-28 08:45:00,34.2,29.8,29.85,West,270,3.4,3.4,84,0.00,,,0.00,WUHU216HW,2013-02-28 13:45:00,
2013-02-28 08:50:00,34.2,30.1,29.85,WNW,293,2.0,4.0,85,0.00,,,0.00,WUHU216HW,2013-02-28 13:50:00,
2013-02-28 08:55:00,34.0,29.9,29.85,WNW,293,2.7,4.0,85,0.00,,,0.00,WUHU216HW,2013-02-28 13:55:00,
2013-02-28 09:00:00,34.0,29.6,29.85,NW,315,3.4,4.7,84,0.00,,,0.00,WUHU216HW,2013-02-28 14:00:00,
2013-02-28 09:05:00,34.0,29.6,29.85,NW,315,3.4,5.4,84,0.00,,,0.00,WUHU216HW,2013-02-28 14:05:00,
2013-02-28 09:10:00,33.8,29.7,29.85,West,270,2.0,5.4,85,0.00,,,0.00,WUHU216HW,2013-02-28 14:10:00,
2013-02-28 09:15:00,33.8,29.7,29.85,WSW,248,2.5,4.0,85,0.00,,,0.00,WUHU216HW,2013-02-28 14:15:00,
2013-02-28 09:20:00,33.5,29.7,29.85,WSW,248,2.2,4.0,86,0.00,,,0.00,WUHU216HW,2013-02-28 14:20:00,
2013-02-28 09:25:00,33.5,29.3,29.85,West,270,4.0,4.3,85,0.00,,,0.00,WUHU216HW,2013-02-28 14:25:00,
2013-02-28 09:30:00,33.5,29.1,29.86,WNW,293,4.7,6.3,84,0.00,,,0.00,WUHU216HW,2013-02-28 14:30:00,
2013-02-28 09:35:00,33.5,28.8,29.86,WNW,293,6.0,6.3,83,0.00,,,0.00,WUHU216HW,2013-02-28 14:35:00,
2013-02-28 09:40:00,33.5,28.5,29.86,West,270,2.9,6.0,82,0.00,,,0.00,WUHU216HW,2013-02-28 14:40:00,
2013-02-28 09:45:00,33.7,28.7,29.86,West,270,3.4,6.0,82,0.00,,,0.00,WUHU216HW,2013-02-28 14:45:00,
2013-02-28 09:50:00,33.7,28.4,29.86,West,270,3.8,4.9,81,0.00,,,0.00,WUHU216HW,2013-02-28 14:50:00,
2013-02-28 09:55:00,33.7,28.4,29.86,NW,315,4.5,5.6,81,0.00,,,0.00,WUHU216HW,2013-02-28 14:55:00,
2013-02-28 10:00:00,33.8,28.5,29.87,West,270,2.2,5.6,81,0.00,,,0.00,WUHU216HW,2013-02-28 15:00:00,
2013-02-28 10:05:00,34.2,29.2,29.86,NW,315,2.9,4.7,82,0.00,,,0.00,WUHU216HW,2013-02-28 15:05:00,
2013-02-28 10:10:00,34.2,29.2,29.87,WNW,293,3.1,4.5,82,0.00,,,0.00,WUHU216HW,2013-02-28 15:10:00,
2013-02-28 10:15:00,34.6,29.0,29.87,NW,315,3.4,4.7,80,0.00,,,0.00,WUHU216HW,2013-02-28 15:15:00,
2013-02-28 10:20:00,34.7,29.4,29.87,NW,315,4.7,4.7,81,0.00,,,0.00,WUHU216HW,2013-02-28 15:20:00,
2013-02-28 10:25:00,34.9,29.6,29.87,WNW,293,3.8,4.7,81,0.00,,,0.00,WUHU216HW,2013-02-28 15:25:00,
2013-02-28 10:30:00,34.9,29.3,29.87,WNW,293,3.4,4.7,80,0.00,,,0.00,WUHU216HW,2013-02-28 15:30:00,
2013-02-28 10:35:00,35.3,29.7,29.87,NW,315,5.1,5.1,80,0.00,,,0.00,WUHU216HW,2013-02-28 15:35:00,
2013-02-28 10:40:00,35.6,30.1,29.87,NNW,338,3.4,5.1,80,0.00,,,0.00,WUHU216HW,2013-02-28 15:40:00,
2013-02-28 10:45:00,35.8,30.2,29.87,WNW,293,4.0,5.1,80,0.00,,,0.00,WUHU216HW,2013-02-28 15:45:00,
2013-02-28 10:50:00,35.6,29.1,29.87,WNW,293,2.2,5.1,77,0.00,,,0.00,WUHU216HW,2013-02-28 15:50:00,
2013-02-28 10:55:00,35.8,29.9,29.87,WNW,293,4.7,5.1,79,0.00,,,0.00,WUHU216HW,2013-02-28 15:55:00,
2013-02-28 11:00:00,36.2,30.2,29.87,WSW,248,3.8,5.8,79,0.00,,,0.00,WUHU216HW,2013-02-28 16:00:00,
2013-02-28 11:05:00,36.4,30.2,29.87,NW,315,4.5,5.8,78,0.00,,,0.00,WUHU216HW,2013-02-28 16:05:00,
2013-02-28 11:10:00,37.3,30.7,29.87,NW,315,4.3,6.9,77,0.00,,,0.00,WUHU216HW,2013-02-28 16:10:00,
2013-02-28 11:15:00,37.8,30.6,29.87,NW,315,2.9,6.9,75,0.00,,,0.00,WUHU216HW,2013-02-28 16:15:00,
2013-02-28 11:20:00,38.2,31.0,29.87,West,270,4.0,5.8,75,0.00,,,0.00,WUHU216HW,2013-02-28 16:20:00,
2013-02-28 11:25:00,38.0,30.8,29.88,NW,315,5.4,5.4,75,0.00,,,0.00,WUHU216HW,2013-02-28 16:25:00,
2013-02-28 11:30:00,37.8,30.0,29.87,WSW,248,2.0,5.4,73,0.00,,,0.00,WUHU216HW,2013-02-28 16:30:00,
2013-02-28 11:35:00,37.8,30.2,29.87,WNW,293,4.3,5.4,74,0.00,,,0.00,WUHU216HW,2013-02-28 16:35:00,
2013-02-28 11:40:00,37.4,29.6,29.87,West,270,4.0,5.6,73,0.00,,,0.00,WUHU216HW,2013-02-28 16:40:00,
2013-02-28 11:45:00,37.6,29.8,29.88,NW,315,4.7,5.8,73,0.00,,,0.00,WUHU216HW,2013-02-28 16:45:00,
2013-02-28 11:50:00,37.6,29.4,29.87,NW,315,5.1,6.0,72,0.00,,,0.00,WUHU216HW,2013-02-28 16:50:00,
2013-02-28 11:55:00,37.4,29.9,29.88,West,270,4.5,6.3,74,0.00,,,0.00,WUHU216HW,2013-02-28 16:55:00,
2013-02-28 12:00:00,38.5,30.6,29.88,NNW,338,4.7,7.2,73,0.00,,,0.00,WUHU216HW,2013-02-28 17:00:00,
2013-02-28 12:05:00,38.5,29.3,29.88,West,270,5.4,7.2,69,0.00,,,0.00,WUHU216HW,2013-02-28 17:05:00,
2013-02-28 12:10:00,38.5,30.0,29.88,WNW,293,5.6,7.2,71,0.00,,,0.00,WUHU216HW,2013-02-28 17:10:00,
2013-02-28 12:15:00,38.7,28.6,29.88,WNW,293,5.6,8.1,67,0.00,,,0.00,WUHU216HW,2013-02-28 17:15:00,
2013-02-28 12:20:00,38.7,28.6,29.87,NW,315,4.7,8.1,67,0.00,,,0.00,WUHU216HW,2013-02-28 17:20:00,
2013-02-28 12:25:00,39.2,29.1,29.88,NW,315,5.6,6.7,67,0.00,,,0.00,WUHU216HW,2013-02-28 17:25:00,
2013-02-28 12:30:00,39.4,29.3,29.88,North,0,4.0,7.2,67,0.00,,,0.00,WUHU216HW,2013-02-28 17:30:00,
2013-02-28 12:35:00,39.2,28.0,29.88,West,270,4.9,7.2,64,0.00,,,0.00,WUHU216HW,2013-02-28 17:35:00,
2013-02-28 12:40:00,39.2,28.7,29.88,NW,315,5.1,6.5,66,0.00,,,0.00,WUHU216HW,2013-02-28 17:40:00,
2013-02-28 12:45:00,38.9,27.6,29.88,WNW,293,4.7,7.4,64,0.00,,,0.00,WUHU216HW,2013-02-28 17:45:00,
2013-02-28 12:50:00,38.5,27.7,29.88,WNW,293,4.5,7.4,65,0.00,,,0.00,WUHU216HW,2013-02-28 17:50:00,
2013-02-28 12:55:00,38.5,28.1,29.88,NNW,338,4.9,6.9,66,0.00,,,0.00,WUHU216HW,2013-02-28 17:55:00,
2013-02-28 13:00:00,38.7,28.3,29.87,NW,315,3.4,6.9,66,0.00,,,0.00,WUHU216HW,2013-02-28 18:00:00,
2013-02-28 13:05:00,39.4,29.3,29.87,WNW,293,4.3,6.9,67,0.00,,,0.00,WUHU216HW,2013-02-28 18:05:00,
2013-02-28 13:10:00,39.8,28.9,29.87,West,270,4.7,6.9,65,0.00,,,0.00,WUHU216HW,2013-02-28 18:10:00,
2013-02-28 13:15:00,39.6,28.7,29.87,NW,315,4.7,6.9,65,0.00,,,0.00,WUHU216HW,2013-02-28 18:15:00,
2013-02-28 13:20:00,39.6,28.0,29.87,WNW,293,5.4,5.4,63,0.00,,,0.00,WUHU216HW,2013-02-28 18:20:00,
2013-02-28 13:25:00,39.6,28.4,29.87,NNW,338,5.4,6.3,64,0.00,,,0.00,WUHU216HW,2013-02-28 18:25:00,
2013-02-28 13:30:00,39.4,27.8,29.87,West,270,4.9,6.3,63,0.00,,,0.00,WUHU216HW,2013-02-28 18:30:00,
2013-02-28 13:35:00,39.1,26.3,29.88,West,270,4.0,6.9,60,0.00,,,0.00,WUHU216HW,2013-02-28 18:35:00,
2013-02-28 13:40:00,39.1,27.5,29.88,WNW,293,5.8,6.9,63,0.00,,,0.00,WUHU216HW,2013-02-28 18:40:00,
2013-02-28 13:45:00,38.9,27.3,29.88,NW,315,4.0,6.5,63,0.00,,,0.00,WUHU216HW,2013-02-28 18:45:00,
2013-02-28 13:50:00,39.1,27.5,29.88,NW,315,3.4,5.8,63,0.00,,,0.00,WUHU216HW,2013-02-28 18:50:00,
2013-02-28 13:55:00,39.1,27.1,29.88,West,270,4.3,5.6,62,0.00,,,0.00,WUHU216HW,2013-02-28 18:55:00,
2013-02-28 14:00:00,38.9,27.3,29.88,NW,315,4.7,5.6,63,0.00,,,0.00,WUHU216HW,2013-02-28 19:00:00,
2013-02-28 14:05:00,39.1,27.5,29.88,WNW,293,4.7,5.1,63,0.00,,,0.00,WUHU216HW,2013-02-28 19:05:00,
2013-02-28 14:10:00,39.1,27.5,29.87,NW,315,5.1,5.1,63,0.00,,,0.00,WUHU216HW,2013-02-28 19:10:00,
2013-02-28 14:15:00,38.9,27.3,29.88,WNW,293,3.6,5.1,63,0.00,,,0.00,WUHU216HW,2013-02-28 19:15:00,
2013-02-28 14:20:00,39.1,27.5,29.88,NW,315,3.6,5.1,63,0.00,,,0.00,WUHU216HW,2013-02-28 19:20:00,
2013-02-28 14:26:00,38.9,27.3,29.88,WNW,293,4.0,6.3,63,0.00,,,0.00,WUHU216HW,2013-02-28 19:26:00,
2013-02-28 14:31:00,39.1,27.5,29.88,NW,315,4.3,6.3,63,0.00,,,0.00,WUHU216HW,2013-02-28 19:31:00,
2013-02-28 14:36:00,38.9,27.3,29.88,WNW,293,2.7,5.6,63,0.00,,,0.00,WUHU216HW,2013-02-28 19:36:00,
2013-02-28 14:41:00,38.9,27.3,29.88,West,270,3.4,5.6,63,0.00,,,0.00,WUHU216HW,2013-02-28 19:41:00,
2013-02-28 14:46:00,39.2,26.5,29.88,WNW,293,4.3,5.8,60,0.00,,,0.00,WUHU216HW,2013-02-28 19:46:00,
2013-02-28 14:51:00,38.9,25.8,29.88,West,270,3.6,6.0,59,0.00,,,0.00,WUHU216HW,2013-02-28 19:51:00,
2013-02-28 14:56:00,38.7,26.0,29.88,NNW,338,2.0,6.3,60,0.00,,,0.00,WUHU216HW,2013-02-28 19:56:00,
2013-02-28 15:01:00,38.9,26.6,29.88,WNW,293,3.8,6.3,61,0.00,,,0.00,WUHU216HW,2013-02-28 20:01:00,
2013-02-28 15:06:00,38.9,26.6,29.88,WNW,293,3.4,6.0,61,0.00,,,0.00,WUHU216HW,2013-02-28 20:06:00,
2013-02-28 15:11:00,38.9,26.9,29.89,NW,315,4.5,6.0,62,0.00,,,0.00,WUHU216HW,2013-02-28 20:11:00,
2013-02-28 15:16:00,38.9,26.9,29.89,NW,315,2.7,4.7,62,0.00,,,0.00,WUHU216HW,2013-02-28 20:16:00,
2013-02-28 15:21:00,38.7,26.7,29.89,NNW,338,4.5,4.5,62,0.00,,,0.00,WUHU216HW,2013-02-28 20:21:00,
2013-02-28 15:26:00,38.5,26.2,29.89,West,270,2.5,4.5,61,0.00,,,0.00,WUHU216HW,2013-02-28 20:26:00,
2013-02-28 15:31:00,38.2,26.3,29.89,WNW,293,2.9,4.3,62,0.00,,,0.00,WUHU216HW,2013-02-28 20:31:00,
2013-02-28 15:36:00,38.3,26.8,29.89,NW,315,2.5,4.3,63,0.00,,,0.00,WUHU216HW,2013-02-28 20:36:00,
2013-02-28 15:41:00,38.2,26.3,29.90,West,270,2.5,4.7,62,0.00,,,0.00,WUHU216HW,2013-02-28 20:41:00,
2013-02-28 15:46:00,37.8,25.9,29.90,WNW,293,2.5,4.7,62,0.00,,,0.00,WUHU216HW,2013-02-28 20:46:00,
2013-02-28 15:51:00,38.0,26.5,29.90,WSW,248,1.8,4.5,63,0.00,,,0.00,WUHU216HW,2013-02-28 20:51:00,
2013-02-28 15:56:00,38.0,26.1,29.90,SW,225,2.7,4.9,62,0.00,,,0.00,WUHU216HW,2013-02-28 20:56:00,
2013-02-28 16:01:00,37.6,25.4,29.90,WNW,293,3.4,4.9,61,0.00,,,0.00,WUHU216HW,2013-02-28 21:01:00,
2013-02-28 16:06:00,37.4,25.6,29.90,WNW,293,4.0,6.5,62,0.00,,,0.00,WUHU216HW,2013-02-28 21:06:00,
2013-02-28 16:11:00,37.4,25.6,29.90,WSW,248,4.0,6.5,62,0.00,,,0.00,WUHU216HW,2013-02-28 21:11:00,
2013-02-28 16:16:00,37.3,25.5,29.91,WSW,248,3.4,5.8,62,0.00,,,0.00,WUHU216HW,2013-02-28 21:16:00,
2013-02-28 16:21:00,37.1,25.3,29.91,WSW,248,2.5,5.8,62,0.00,,,0.00,WUHU216HW,2013-02-28 21:21:00,
2013-02-28 16:26:00,36.9,25.8,29.91,West,270,1.8,4.7,64,0.00,,,0.00,WUHU216HW,2013-02-28 21:26:00,
2013-02-28 16:31:00,36.9,25.8,29.91,WNW,293,2.0,4.7,64,0.00,,,0.00,WUHU216HW,2013-02-28 21:31:00,
2013-02-28 16:36:00,36.9,25.8,29.92,NW,315,4.0,5.6,64,0.00,,,0.00,WUHU216HW,2013-02-28 21:36:00,
2013-02-28 16:41:00,37.1,26.0,29.92,WNW,293,4.0,5.6,64,0.00,,,0.00,WUHU216HW,2013-02-28 21:41:00,
2013-02-28 16:46:00,36.9,25.5,29.92,WSW,248,5.1,7.4,63,0.00,,,0.00,WUHU216HW,2013-02-28 21:46:00,
2013-02-28 16:51:00,36.9,25.5,29.92,WSW,248,2.2,7.4,63,0.00,,,0.00,WUHU216HW,2013-02-28 21:51:00,
2013-02-28 16:56:00,36.9,25.8,29.92,WSW,248,4.7,5.1,64,0.00,,,0.00,WUHU216HW,2013-02-28 21:56:00,
2013-02-28 17:01:00,36.7,25.7,29.93,West,270,4.0,4.7,64,0.00,,,0.00,WUHU216HW,2013-02-28 22:01:00,
2013-02-28 17:06:00,36.7,25.7,29.93,WSW,248,2.9,4.7,64,0.00,,,0.00,WUHU216HW,2013-02-28 22:06:00,
2013-02-28 17:11:00,36.7,25.7,29.93,WNW,293,3.8,5.1,64,0.00,,,0.00,WUHU216HW,2013-02-28 22:11:00,
2013-02-28 17:16:00,36.5,25.5,29.93,WNW,293,5.4,5.4,64,0.00,,,0.00,WUHU216HW,2013-02-28 22:16:00,
2013-02-28 17:21:00,36.5,25.9,29.93,WSW,248,3.4,5.8,65,0.00,,,0.00,WUHU216HW,2013-02-28 22:21:00,
2013-02-28 17:26:00,36.4,25.4,29.94,WNW,293,4.9,6.0,64,0.00,,,0.00,WUHU216HW,2013-02-28 22:26:00,
2013-02-28 17:31:00,36.4,25.4,29.94,WNW,293,4.0,6.0,64,0.00,,,0.00,WUHU216HW,2013-02-28 22:31:00,
2013-02-28 17:36:00,36.4,25.8,29.94,West,270,3.4,5.6,65,0.00,,,0.00,WUHU216HW,2013-02-28 22:36:00,
2013-02-28 17:41:00,36.2,25.6,29.94,West,270,3.1,5.6,65,0.00,,,0.00,WUHU216HW,2013-02-28 22:41:00,
2013-02-28 17:46:00,36.2,25.6,29.94,West,270,1.8,4.7,65,0.00,,,0.00,WUHU216HW,2013-02-28 22:46:00,
2013-02-28 17:51:00,36.2,25.9,29.94,NW,315,4.5,4.5,66,0.00,,,0.00,WUHU216HW,2013-02-28 22:51:00,
2013-02-28 17:56:00,36.2,25.9,29.94,WNW,293,4.3,4.5,66,0.00,,,0.00,WUHU216HW,2013-02-28 22:56:00,
2013-02-28 18:01:00,36.0,26.1,29.94,WSW,248,2.7,5.1,67,0.00,,,0.00,WUHU216HW,2013-02-28 23:01:00,
2013-02-28 18:06:00,36.0,25.8,29.94,WNW,293,3.6,5.6,66,0.00,,,0.00,WUHU216HW,2013-02-28 23:06:00,
2013-02-28 18:11:00,36.0,26.1,29.94,WNW,293,3.4,5.6,67,0.00,,,0.00,WUHU216HW,2013-02-28 23:11:00,
2013-02-28 18:16:00,36.0,26.1,29.95,NW,315,2.5,4.0,67,0.00,,,0.00,WUHU216HW,2013-02-28 23:16:00,
2013-02-28 18:21:00,36.0,26.1,29.95,WNW,293,3.4,4.0,67,0.00,,,0.00,WUHU216HW,2013-02-28 23:21:00,
2013-02-28 18:26:00,36.0,26.1,29.95,WNW,293,2.0,3.8,67,0.00,,,0.00,WUHU216HW,2013-02-28 23:26:00,
2013-02-28 18:31:00,35.8,25.9,29.95,WNW,293,3.4,5.4,67,0.00,,,0.00,WUHU216HW,2013-02-28 23:31:00,
2013-02-28 18:36:00,35.8,25.9,29.95,NW,315,3.4,5.4,67,0.00,,,0.00,WUHU216HW,2013-02-28 23:36:00,
2013-02-28 18:41:00,35.8,26.3,29.95,WNW,293,2.5,4.0,68,0.00,,,0.00,WUHU216HW,2013-02-28 23:41:00,
2013-02-28 18:46:00,35.8,26.3,29.95,West,270,2.5,4.0,68,0.00,,,0.00,WUHU216HW,2013-02-28 23:46:00,
2013-02-28 18:51:00,35.6,26.1,29.95,West,270,2.2,4.3,68,0.00,,,0.00,WUHU216HW,2013-02-28 23:51:00,
2013-02-28 18:56:00,35.6,26.1,29.95,WNW,293,3.4,4.7,68,0.00,,,0.00,WUHU216HW,2013-02-28 23:56:00,
2013-02-28 19:01:00,35.6,26.5,29.96,NW,315,3.4,4.7,69,0.00,,,0.00,WUHU216HW,2013-03-01 00:01:00,
2013-02-28 19:06:00,35.6,26.5,29.95,WNW,293,3.1,4.7,69,0.00,,,0.00,WUHU216HW,2013-03-01 00:06:00,
2013-02-28 19:11:00,35.6,26.8,29.96,WNW,293,3.6,3.8,70,0.00,,,0.00,WUHU216HW,2013-03-01 00:11:00,
2013-02-28 19:16:00,35.6,26.8,29.95,WNW,293,3.1,3.8,70,0.00,,,0.00,WUHU216HW,2013-03-01 00:16:00,
2013-02-28 19:21:00,35.6,27.2,29.95,WNW,293,4.3,4.3,71,0.00,,,0.00,WUHU216HW,2013-03-01 00:21:00,
2013-02-28 19:26:00,35.5,26.6,29.95,WSW,248,4.0,4.7,70,0.00,,,0.00,WUHU216HW,2013-03-01 00:26:00,
2013-02-28 19:31:00,35.5,26.6,29.95,WNW,293,3.6,4.7,70,0.00,,,0.00,WUHU216HW,2013-03-01 00:31:00,
2013-02-28 19:36:00,35.5,27.0,29.95,WNW,293,2.5,5.4,71,0.00,,,0.00,WUHU216HW,2013-03-01 00:36:00,
2013-02-28 19:41:00,35.5,26.6,29.95,NNW,338,3.6,5.8,70,0.00,,,0.00,WUHU216HW,2013-03-01 00:41:00,
2013-02-28 19:46:00,35.3,26.8,29.95,WNW,293,3.1,5.8,71,0.00,,,0.00,WUHU216HW,2013-03-01 00:46:00,
2013-02-28 19:51:00,35.3,26.8,29.95,WNW,293,3.4,4.7,71,0.00,,,0.00,WUHU216HW,2013-03-01 00:51:00,
2013-02-28 19:56:00,35.3,26.8,29.95,NW,315,2.9,4.7,71,0.00,,,0.00,WUHU216HW,2013-03-01 00:56:00,
2013-02-28 20:01:00,35.3,26.8,29.95,WNW,293,1.8,4.3,71,0.00,,,0.00,WUHU216HW,2013-03-01 01:01:00,
2013-02-28 20:06:00,35.1,26.7,29.95,NW,315,2.5,3.1,71,0.00,,,0.00,WUHU216HW,2013-03-01 01:06:00,
2013-02-28 20:11:00,35.1,26.7,29.95,WNW,293,2.5,3.4,71,0.00,,,0.00,WUHU216HW,2013-03-01 01:11:00,
2013-02-28 20:16:00,35.1,26.9,29.95,WNW,293,2.2,3.4,72,0.00,,,0.00,WUHU216HW,2013-03-01 01:16:00,
2013-02-28 20:21:00,35.1,26.9,29.95,NW,315,3.1,3.4,72,0.00,,,0.00,WUHU216HW,2013-03-01 01:21:00,
2013-02-28 20:26:00,35.1,26.9,29.95,WSW,248,2.5,5.4,72,0.00,,,0.00,WUHU216HW,2013-03-01 01:26:00,
2013-02-28 20:31:00,34.9,26.7,29.95,WNW,293,4.0,5.4,72,0.00,,,0.00,WUHU216HW,2013-03-01 01:31:00,
2013-02-28 20:36:00,34.9,26.7,29.95,WNW,293,3.8,5.4,72,0.00,,,0.00,WUHU216HW,2013-03-01 01:36:00,
2013-02-28 20:41:00,34.9,26.7,29.95,WNW,293,3.4,5.4,72,0.00,,,0.00,WUHU216HW,2013-03-01 01:41:00,
2013-02-28 20:46:00,34.9,27.1,29.96,NW,315,2.5,4.5,73,0.00,,,0.00,WUHU216HW,2013-03-01 01:46:00,
2013-02-28 20:51:00,34.9,27.1,29.96,WNW,293,2.5,4.5,73,0.00,,,0.00,WUHU216HW,2013-03-01 01:51:00,
2013-02-28 20:56:00,34.9,27.1,29.96,NW,315,2.2,3.6,73,0.00,,,0.00,WUHU216HW,2013-03-01 01:56:00,
2013-02-28 21:01:00,34.9,27.1,29.96,NNW,338,3.8,3.8,73,0.00,,,0.00,WUHU216HW,2013-03-01 02:01:00,
2013-02-28 21:06:00,34.9,27.1,29.96,NW,315,4.9,6.3,73,0.00,,,0.00,WUHU216HW,2013-03-01 02:06:00,
2013-02-28 21:11:00,34.9,27.1,29.96,West,270,2.9,6.3,73,0.00,,,0.00,WUHU216HW,2013-03-01 02:11:00,
2013-02-28 21:16:00,34.9,27.1,29.97,West,270,2.7,4.9,73,0.00,,,0.00,WUHU216HW,2013-03-01 02:16:00,
2013-02-28 21:21:00,34.9,27.1,29.97,WNW,293,2.2,3.8,73,0.00,,,0.00,WUHU216HW,2013-03-01 02:21:00,
2013-02-28 21:26:00,34.9,27.1,29.97,WNW,293,2.9,3.1,73,0.00,,,0.00,WUHU216HW,2013-03-01 02:26:00,
2013-02-28 21:31:00,34.9,27.1,29.97,WNW,293,2.9,2.9,73,0.00,,,0.00,WUHU216HW,2013-03-01 02:31:00,
2013-02-28 21:36:00,34.9,27.4,29.97,WNW,293,3.1,3.8,74,0.00,,,0.00,WUHU216HW,2013-03-01 02:36:00,
2013-02-28 21:41:00,34.9,27.1,29.96,WNW,293,2.7,3.8,73,0.00,,,0.00,WUHU216HW,2013-03-01 02:41:00,
2013-02-28 21:46:00,34.9,27.4,29.96,WNW,293,1.8,3.4,74,0.00,,,0.00,WUHU216HW,2013-03-01 02:46:00,
2013-02-28 21:51:00,34.9,27.4,29.96,WNW,293,2.2,3.8,74,0.00,,,0.00,WUHU216HW,2013-03-01 02:51:00,
2013-02-28 21:56:00,34.7,27.2,29.96,West,270,2.9,3.8,74,0.00,,,0.00,WUHU216HW,2013-03-01 02:56:00,
2013-02-28 22:01:00,34.7,27.2,29.97,WNW,293,3.4,3.8,74,0.00,,,0.00,WUHU216HW,2013-03-01 03:01:00,
2013-02-28 22:06:00,34.7,27.2,29.96,WNW,293,3.1,4.7,74,0.00,,,0.00,WUHU216HW,2013-03-01 03:06:00,
2013-02-28 22:11:00,34.7,27.2,29.97,West,270,2.5,4.7,74,0.00,,,0.00,WUHU216HW,2013-03-01 03:11:00,
2013-02-28 22:16:00,34.7,27.5,29.97,West,270,2.7,3.8,75,0.00,,,0.00,WUHU216HW,2013-03-01 03:16:00,
2013-02-28 22:21:00,34.7,27.2,29.96,NNW,338,2.7,3.4,74,0.00,,,0.00,WUHU216HW,2013-03-01 03:21:00,
2013-02-28 22:26:00,34.7,27.5,29.97,WNW,293,4.0,4.0,75,0.00,,,0.00,WUHU216HW,2013-03-01 03:26:00,
2013-02-28 22:31:00,34.7,27.5,29.97,West,270,2.7,4.3,75,0.00,,,0.00,WUHU216HW,2013-03-01 03:31:00,
2013-02-28 22:36:00,34.7,27.5,29.97,NNW,338,2.5,4.3,75,0.00,,,0.00,WUHU216HW,2013-03-01 03:36:00,
2013-02-28 22:41:00,34.7,27.5,29.97,West,270,3.8,3.8,75,0.00,,,0.00,WUHU216HW,2013-03-01 03:41:00,
2013-02-28 22:46:00,34.7,27.5,29.97,NW,315,2.7,3.8,75,0.00,,,0.00,WUHU216HW,2013-03-01 03:46:00,
2013-02-28 22:51:00,34.7,27.5,29.97,WNW,293,3.8,4.9,75,0.00,,,0.00,WUHU216HW,2013-03-01 03:51:00,
2013-02-28 22:56:00,34.7,27.5,29.97,West,270,4.7,4.9,75,0.00,,,0.00,WUHU216HW,2013-03-01 03:56:00,
2013-02-28 23:01:00,34.6,27.4,29.97,WNW,293,3.1,4.7,75,0.00,,,0.00,WUHU216HW,2013-03-01 04:01:00,
2013-02-28 23:06:00,34.6,27.4,29.97,WNW,293,2.5,4.7,75,0.00,,,0.00,WUHU216HW,2013-03-01 04:06:00,
2013-02-28 23:11:00,34.6,27.4,29.97,NW,315,2.5,3.4,75,0.00,,,0.00,WUHU216HW,2013-03-01 04:11:00,
2013-02-28 23:16:00,34.6,27.7,29.96,West,270,2.5,2.7,76,0.00,,,0.00,WUHU216HW,2013-03-01 04:16:00,
2013-02-28 23:21:00,34.6,27.7,29.96,NW,315,1.8,2.9,76,0.00,,,0.00,WUHU216HW,2013-03-01 04:21:00,
2013-02-28 23:26:00,34.6,27.7,29.96,WNW,293,2.5,3.4,76,0.00,,,0.00,WUHU216HW,2013-03-01 04:26:00,
2013-02-28 23:31:00,34.6,27.7,29.96,WNW,293,1.8,3.4,76,0.00,,,0.00,WUHU216HW,2013-03-01 04:31:00,
2013-02-28 23:36:00,34.6,28.0,29.96,West,270,1.1,3.1,77,0.00,,,0.00,WUHU216HW,2013-03-01 04:36:00,
2013-02-28 23:41:00,34.4,27.6,29.96,West,270,1.8,3.1,76,0.00,,,0.00,WUHU216HW,2013-03-01 04:41:00,
2013-02-28 23:46:00,34.4,27.8,29.96,WNW,293,2.2,2.9,77,0.00,,,0.00,WUHU216HW,2013-03-01 04:46:00,
2013-02-28 23:51:00,34.4,27.8,29.96,WNW,293,1.6,2.9,77,0.00,,,0.00,WUHU216HW,2013-03-01 04:51:00,
2013-02-28 23:56:00,34.4,27.8,29.96,WNW,293,1.8,3.1,77,0.00,,,0.00,WUHU216HW,2013-03-01 04:56:00,